EW8081 Weather Reports


time (UTC)temp
C
wind
direction
speed
KPH
gust
KPH
rain 1hr
cm
rain 24hr
cm
rain mn
cm
humidity
%
barometer
mb
20260505083021 16 193 3.2 8.0 0.00 0.03 0.03 66 1017.7
20260505081529 17 189 1.6 8.0 0.00 0.03 0.03 65 1017.7
20260505080021 17 182 6.4 16.1 0.00 0.03 0.03 63 1017.7
20260505074522 17 177 4.8 12.9 0.00 0.03 0.03 63 1017.4
20260505073023 18 188 3.2 6.4 0.00 0.03 0.03 63 1017.0
20260505071539 18 195 3.2 9.7 0.00 0.03 0.03 63 1016.7
20260505070019 20 187 4.8 11.3 0.00 0.03 0.03 58 1016.7
20260505064523 20 196 4.8 14.5 0.00 0.03 0.03 58 1016.4
20260505063017 22 147 4.8 11.3 0.00 0.03 0.03 55 1016.2
20260505061517 26 244 0.0 9.7 0.00 0.03 0.03 35 1016.3
20260505060016 26 291 3.2 11.3 0.00 0.03 0.03 33 1016.1
20260505054516 26 297 4.8 12.9 0.00 0.03 0.03 35 1016.0
20260505053023 26 299 3.2 12.9 0.00 0.03 0.03 35 1016.0
20260505051520 26 289 3.2 16.1 0.00 0.03 0.03 35 1016.1
20260505041511 26 191 1.6 16.1 0.00 0.03 0.03 36 1015.5
20260505040006 26 242 3.2 16.1 0.00 0.03 0.03 37 1015.1
20260505034503 26 291 6.4 17.7 0.00 0.03 0.03 37 1015.2
20260505033004 25 317 6.4 17.7 0.00 0.03 0.03 37 1015.5
20260505031500 25 320 6.4 14.5 0.00 0.03 0.03 39 1015.6
20260505030104 25 287 8.0 19.3 0.00 0.03 0.03 39 1015.7
20260505024557 24 275 11.3 25.7 0.00 0.05 0.03 40 1015.7
20260505023058 24 290 11.3 25.7 0.00 0.05 0.03 40 1016.0
20260505021554 23 303 8.0 19.3 0.00 0.05 0.03 43 1016.0
20260505020055 23 309 11.3 24.1 0.00 0.05 0.03 43 1016.0
20260505014549 23 317 6.4 25.7 0.00 0.08 0.03 45 1016.1
20260505013047 22 311 14.5 27.4 0.00 0.08 0.03 46 1016.5
20260505011552 22 276 14.5 29.0 0.00 0.08 0.03 45 1016.5
20260505010048 22 283 11.3 25.7 0.00 0.08 0.03 46 1016.8
20260505004543 22 349 12.9 22.5 0.00 0.08 0.03 46 1017.0
20260505003041 22 269 8.0 24.1 0.00 0.08 0.03 47 1017.5
20260505001540 22 293 9.7 20.9 0.00 0.08 0.03 45 1017.4
20260505000038 21 315 4.8 19.3 0.00 0.08 0.03 48 1017.3
20260504234537 21 360 8.0 24.1 0.00 0.08 0.03 48 1017.5
20260504233041 21 305 4.8 20.9 0.00 0.08 0.03 49 1017.5
20260504231534 21 326 8.0 17.7 0.00 0.08 0.03 48 1017.6
20260504230031 20 322 4.8 17.7 0.00 0.08 0.03 50 1017.7
20260504224527 20 335 3.2 16.1 0.00 0.08 0.03 51 1017.4
20260504223022 18 299 4.8 17.7 0.00 0.08 0.03 56 1017.3
20260504221523 17 296 3.2 19.3 0.00 0.08 0.03 62 1017.2
20260504220022 16 307 6.4 20.9 0.00 0.08 0.03 63 1017.2
20260504214514 15 288 6.4 16.1 0.00 0.08 0.03 66 1016.8
20260504213009 15 302 11.3 20.9 0.00 0.08 0.03 72 1016.6
20260504211507 13 301 9.7 16.1 0.00 0.08 0.03 78 1016.5
20260504210005 13 299 3.2 8.0 0.00 0.08 0.03 84 1016.5
20260504204502 13 303 3.2 12.9 0.00 0.08 0.03 85 1016.3
20260504203059 13 300 6.4 16.1 0.00 0.08 0.03 86 1016.0
20260504201557 14 289 8.0 14.5 0.00 0.08 0.03 86 1015.9
20260504200058 13 335 6.4 17.7 0.00 0.08 0.03 85 1015.5
20260504194552 13 300 3.2 9.7 0.00 0.08 0.03 83 1015.3
20260504193048 14 285 4.8 11.3 0.00 0.08 0.03 82 1015.1
20260504191554 14 289 6.4 16.1 0.00 0.08 0.03 81 1015.2
20260504190050 15 287 6.4 12.9 0.00 0.08 0.03 81 1015.1
20260504184553 15 322 9.7 17.7 0.00 0.08 0.03 81 1014.9
20260504183048 15 300 6.4 14.5 0.00 0.08 0.03 81 1014.7
20260504181546 15 290 4.8 12.9 0.00 0.08 0.03 81 1014.6
20260504180036 15 291 3.2 12.9 0.00 0.08 0.03 82 1014.5
20260504174534 15 270 4.8 12.9 0.00 0.08 0.03 82 1014.4
20260504173031 15 284 1.6 14.5 0.00 0.08 0.03 82 1014.6
20260504171528 16 293 3.2 8.0 0.00 0.08 0.03 82 1014.7